This is the latest recevied weather packets stored in our database for station/object UB2FAY-13. If no packets are shown the sender has not sent any weather packets the latest 10 day(s).
| Time | Temp. | Humidity | Pressure | Rain* | Wind** | Luminosity | Snow |
|---|---|---|---|---|---|---|---|
| 1777678016 | 11.67° C | 60% | 1023.2 hPa | 0 mm | - | - | - |
| 1777677416 | 11.67° C | 59% | 1023.2 hPa | 0 mm | - | - | - |
| 1777676816 | 12.22° C | 58% | 1023.2 hPa | 0 mm | - | - | - |
| 1777676217 | 12.78° C | 61% | 1023.3 hPa | 0 mm | - | - | - |
| 1777675616 | 12.78° C | 61% | 1023.4 hPa | 0 mm | - | - | - |
| 1777675016 | 13.33° C | 62% | 1023.3 hPa | 0 mm | - | - | - |
| 1777674417 | 13.33° C | 62% | 1023.3 hPa | 0 mm | - | - | - |
| 1777673816 | 13.33° C | 61% | 1023.3 hPa | 0 mm | - | - | - |
| 1777673216 | 13.33° C | 62% | 1023.4 hPa | 0 mm | - | - | - |
| 1777672616 | 13.89° C | 63% | 1023.4 hPa | 0 mm | - | - | - |
| 1777672016 | 13.33° C | 63% | 1023.5 hPa | 0 mm | - | - | - |
| 1777671416 | 13.33° C | 64% | 1023.7 hPa | 0 mm | - | - | - |
| 1777670816 | 13.33° C | 63% | 1023.6 hPa | 0 mm | - | - | - |
| 1777670252 | 13.89° C | 63% | 1023.6 hPa | 0 mm | - | - | - |
| 1777670216 | 13.89° C | 63% | 1023.6 hPa | 0 mm | - | - | - |
| 1777669666 | 13.89° C | 65% | 1023.6 hPa | 0 mm | - | - | - |
| 1777669625 | 13.89° C | 65% | 1023.6 hPa | 0 mm | - | - | - |
| 1777668416 | 13.89° C | 66% | 1023.8 hPa | 0 mm | - | - | - |
| 1777667820 | 13.33° C | 65% | 1023.7 hPa | 0 mm | - | - | - |
| 1777667216 | 12.78° C | 63% | 1024 hPa | 0 mm | - | - | - |
| 1777666617 | 12.78° C | 60% | 1024.1 hPa | 0 mm | - | - | - |
| 1777665417 | 12.78° C | 60% | 1024.2 hPa | 0 mm | - | - | - |
| 1777664816 | 12.78° C | 60% | 1024.2 hPa | 0 mm | - | - | - |
| 1777664221 | 12.78° C | 59% | 1024.1 hPa | 0 mm | - | - | - |
| 1777663616 | 13.33° C | 58% | 1024.2 hPa | 0 mm | - | - | - |
* Rain latest hour (hover to see other rain measurements)
** Current wind speed in m/s (hover to see current wind gust speed)